Location: Praha
(50.0830°N, 14.4670°E)
Time: 14:45:44
(UTC+01:00)

ISS - Pass Details

Date: 10 December 2018
Orbit: 401 x 408 km, 51.6° (Epoch: 12 December)

Event Time Altitude Azimuth Distance (km) Brightness Sun altitude
Rises 19:04:55 0° 279° (W) 2,317 1.2 -28.5°
Reaches altitude 10° 19:08:21 10° 240° (WSW) 1,451 -0.3 -29.0°
Enters shadow 19:08:57 11° 230° (SW) 1,406 -0.5 -29.1°
